Regional Weather Roundup
Issued by NWS

Home | Current Version | Previous Version | Text Only | Print | Product List | Glossary Off
Versions: 1 2 3 4 5 6 7 8 9 10 11 12 13 14 15 16 17 18 19 20 21 22 23 24 25 26 27 28 29

000
ASUS45 KGTF 020610
RWRMT
MONTANA HOURLY WEATHER ROUNDUP
NATIONAL WEATHER SERVICE GREAT FALLS MT
1200 AM MDT SAT MAY 02 2015

NOTE: "FAIR" INDICATES FEW OR NO CLOUDS BELOW 12000 FEET WITH NO
SIGNIFICANT WEATHER AND/OR OBSTRUCTIONS TO VISIBILITY.

MTZ001>007-043-020700-
WEST OF THE DIVIDE

CITY           SKY/WX    TMP DP  RH WIND       PRES   REMARKS
KALISPELL      CLOUDY    54  30  40 SW7       29.78S
MISSOULA       CLOUDY    53  29  39 CALM      29.85F
BUTTE          PTCLDY    41  26  55 SE6       29.94F
DEER LODGE       N/A     46  23  39 SW6       29.92F
EUREKA           N/A     57  30  35 SE7       29.74F
HAMILTON         N/A     50  30  46 SW3       29.87R
LIBBY            N/A     55  34  44 CALM      29.75F
$$

MTZ008-052>055-020700-
SOUTHWEST MONTANA

CITY           SKY/WX    TMP DP  RH WIND       PRES   REMARKS
BOZEMAN        PTCLDY    40  31  70 SE9       29.89S
DILLON         MOCLDY    51  25  36 S9        29.92S
$$

MTZ009-010-012-014-046-048-049-054-020700-
EAST SLOPES AND CENTRAL MONTANA

CITY           SKY/WX    TMP DP  RH WIND       PRES   REMARKS
CUT BANK       CLOUDY    57  26  30 W15       29.75F
GREAT FALLS    CLOUDY    55  23  28 SW16      29.78F
MALMSTROM AFB  CLOUDY    55  24  29 W10       29.78F
HELENA         PTCLDY    51  18  27 W8        29.84F
$$

MTZ011-013-016-021-045-047-050-051-020700-
NORTH CENTRAL MONTANA

CITY           SKY/WX    TMP DP  RH WIND       PRES   REMARKS
HAVRE          CLOUDY    52  29  41 SW9       29.71F
LEWISTOWN      CLOUDY    49  32  52 E5        29.83S
CHINOOK          N/A     55  30  38 CALM      29.71F
FORT BENTON      N/A     57  27  30 SW8       29.75F
$$

MTZ017>020-022>042-056>058-061-062-020700-
EASTERN PLAINS

CITY           SKY/WX    TMP DP  RH WIND       PRES   REMARKS
BAKER          MOCLDY    51  36  56 SE7       29.83F
BILLINGS       PTCLDY    55  28  35 NW6       29.81F
GLASGOW        PTCLDY    53  33  46 CALM      29.71F
JORDAN           N/A     43  35  73 W3        29.75F
LIVINGSTON     CLEAR     45  28  51 NW12      29.87S
MILES CITY     MOCLDY    63  29  27 S10       29.78F
SIDNEY         CLEAR     48  34  57 CALM      29.77F
WOLF POINT     CLEAR     50  34  54 NW6       29.73F
BIG TIMBER       N/A     50  25  37 SW7       29.86F
FORSYTH          N/A     57  32  38 CALM      29.77F
PLENTYWOOD       N/A     55  34  44 SE8       29.72F
POPLAR           N/A     55  32  41 S3        29.73F
$$

REGIONAL REPORTS...DAKOTAS

CITY           SKY/WX    TMP DP  RH WIND       PRES   REMARKS
WILLISTON      PTCLDY    54  35  48 S6        29.75F
MINOT          CLOUDY    52  33  48 S7        29.76F
DICKINSON      CLOUDY    45  32  60 S8        29.81F
BEACH          FAIR      46  32  57 SE7       29.82F
CROSBY         FAIR      50  36  57 S14       29.73F
WATFORD CITY   FAIR      48  32  53 CALM      29.76F
BISMARCK       PTCLDY    53  34  48 CALM      29.84F
GRAND FORKS    PTCLDY    57  36  45 S12       29.81F
FARGO          CLEAR     61  32  33 S12       29.86F
BUFFALO SD       N/A     53  33  46 S14       29.79F
RAPID CITY     CLEAR     51  34  52 S5        29.91F
$$

REGIONAL REPORTS...WYOMING/IDAHO/WASHINGTON

CITY           SKY/WX    TMP DP  RH WIND       PRES   REMARKS
GILLETTE       CLEAR     51  33  50 S14       29.88F
SHERIDAN       PTCLDY    59  27  29 SE5       29.83F
BUFFALO WY     CLEAR     51  26  37 S7        29.91F
CODY           PTCLDY    54  21  28 W9        29.92S
YELLOWSTONE LA   N/A     29  20  69 CALM      30.08F
IDAHO FALLS    PTCLDY    55  27  34 SW10      29.95R
SALMON         PTCLDY    48  21  34 CALM      29.90S
BOISE          PTCLDY    59  24  26 SE9       29.87S
SPOKANE        CLOUDY    57  27  31 SW9       29.80S
$$

REGIONAL REPORTS...ALBERTA

CITY           SKY/WX    TMP DP  RH WIND       PRES   REMARKS
EDMONTON       CLEAR     45  30  57 W10       29.74R
CALGARY        MOCLDY    39  32  75 N12       29.81S WCI  32
LETHBRIDGE     MOCLDY    48  34  57 N12G26    29.75S
MEDICINE HAT   CLOUDY    52  36  54 N9G18     29.73R
$$

REGIONAL REPORTS...SASKATCHEWAN

CITY           SKY/WX    TMP DP  RH WIND       PRES   REMARKS
SWIFT CURRENT  PTCLDY    48  30  49 SW8       29.65S
SASKATOON      MOCLDY    46  39  76 NW7       29.62S
$$



USA.gov is the U.S. government's official web portal to all federal, state and local government web resources and services.